N8351P KBJC-KBDU

Flight info

Callsign N8351P
Flight time 0h -28m
Altitude 7500
Route DCT
Aircraft PA24/L-SDGRY/S

Departure

Time 2026-05-07 23:28
Airport Rocky Mountain Metropolitan Airport (KBJC)

Arrival

Time 2026-05-07 23:00
Airport Boulder Municipal Airport (KBDU)
Time Latitude Longitude Altitude Speed Heading
2026-05-07 22:59 39.90557 -105.10612 5610 ft 0 kts 129°
2026-05-07 23:25 39.90553 -105.10606 5610 ft 6 kts 138°
2026-05-07 23:25 39.90498 -105.10549 5606 ft 7 kts 154°
2026-05-07 23:26 39.90444 -105.10522 5604 ft 13 kts 124°
2026-05-07 23:26 39.90401 -105.10559 5604 ft 9 kts 268°
2026-05-07 23:26 39.90406 -105.10648 5606 ft 12 kts 277°
2026-05-07 23:26 39.90442 -105.10766 5612 ft 28 kts 303°
2026-05-07 23:27 39.91006 -105.11839 5742 ft 91 kts 302°
2026-05-07 23:27 39.91361 -105.12515 5971 ft 92 kts 305°
2026-05-07 23:27 39.91898 -105.12934 6190 ft 92 kts 347°
2026-05-07 23:28 39.92525 -105.12886 6459 ft 91 kts 360°
2026-05-07 23:28 39.93154 -105.12740 6719 ft 94 kts
2026-05-07 23:28 39.93783 -105.12580 6896 ft 92 kts 360°
2026-05-07 23:28 39.94423 -105.12443 7094 ft 94 kts 360°
2026-05-07 23:29 39.95067 -105.12320 7271 ft 92 kts
2026-05-07 23:29 39.95692 -105.12150 7433 ft 92 kts
2026-05-07 23:29 39.96340 -105.11969 7531 ft 103 kts
2026-05-07 23:29 39.97092 -105.11885 7551 ft 116 kts 343°
2026-05-07 23:30 39.97794 -105.12457 7459 ft 126 kts 303°
2026-05-07 23:30 39.98057 -105.13559 7536 ft 130 kts 279°
2026-05-07 23:30 39.98140 -105.14750 7533 ft 133 kts 278°
2026-05-07 23:30 39.98207 -105.15962 7501 ft 134 kts 278°
2026-05-07 23:31 39.98272 -105.17155 7494 ft 130 kts 278°
2026-05-07 23:31 39.98537 -105.18254 7485 ft 127 kts 298°
2026-05-07 23:31 39.98938 -105.19260 7485 ft 123 kts 298°
2026-05-07 23:31 39.99327 -105.20236 7478 ft 121 kts 298°
2026-05-07 23:32 39.99723 -105.21176 7484 ft 118 kts 304°
2026-05-07 23:32 40.00388 -105.21751 7490 ft 118 kts 346°
2026-05-07 23:32 40.01226 -105.21726 7484 ft 123 kts 357°
2026-05-07 23:32 40.02082 -105.21623 7494 ft 124 kts 358°
2026-05-07 23:33 40.02930 -105.21500 7496 ft 123 kts 359°
2026-05-07 23:33 40.03777 -105.21359 7496 ft 123 kts 359°
2026-05-07 23:33 40.04616 -105.21476 7499 ft 123 kts 328°
2026-05-07 23:33 40.05154 -105.22291 7499 ft 121 kts 288°
2026-05-07 23:34 40.05078 -105.23362 7495 ft 124 kts 247°
2026-05-07 23:34 40.04421 -105.24093 7491 ft 130 kts 208°
2026-05-07 23:34 40.03499 -105.24073 7491 ft 139 kts 168°
2026-05-07 23:34 40.02674 -105.23328 7216 ft 160 kts 134°
2026-05-07 23:35 40.02219 -105.21977 7041 ft 162 kts 94°
2026-05-07 23:35 40.02201 -105.20468 6670 ft 169 kts 81°
2026-05-07 23:35 40.02269 -105.18941 6383 ft 168 kts 81°
2026-05-07 23:35 40.02636 -105.17630 6272 ft 148 kts 39°
2026-05-07 23:36 40.03444 -105.17234 6344 ft 111 kts 341°
2026-05-07 23:36 40.03882 -105.17919 6174 ft 105 kts 275°
2026-05-07 23:36 40.03893 -105.18818 5951 ft 96 kts 278°
2026-05-07 23:36 40.03920 -105.19661 5758 ft 93 kts 269°
2026-05-07 23:37 40.03919 -105.20484 5560 ft 85 kts 269°
2026-05-07 23:37 40.03918 -105.21191 5435 ft 72 kts 265°
2026-05-07 23:37 40.03912 -105.21834 5336 ft 71 kts 268°
2026-05-07 23:37 40.03912 -105.22439 5293 ft 61 kts 268°
2026-05-07 23:38 40.03910 -105.22976 5299 ft 71 kts 263°
2026-05-07 23:38 40.03899 -105.23628 5464 ft 71 kts 259°
2026-05-07 23:38 40.03699 -105.24182 5671 ft 71 kts 206°
2026-05-07 23:38 40.03212 -105.24032 5803 ft 84 kts 125°
2026-05-07 23:39 40.03123 -105.23261 6033 ft 89 kts 93°
2026-05-07 23:39 40.03009 -105.22332 6136 ft 113 kts 95°
2026-05-07 23:39 40.02890 -105.21271 6203 ft 124 kts 96°
2026-05-07 23:39 40.02757 -105.20145 6346 ft 125 kts 96°
2026-05-07 23:40 40.02850 -105.19061 6336 ft 123 kts 47°
2026-05-07 23:40 40.03552 -105.18684 6151 ft 108 kts 338°
2026-05-07 23:40 40.03919 -105.19358 5873 ft 95 kts 272°
2026-05-07 23:40 40.03912 -105.20202 5606 ft 89 kts 270°
2026-05-07 23:41 40.03925 -105.20930 5472 ft 73 kts 268°
2026-05-07 23:41 40.03916 -105.21551 5378 ft 67 kts 264°
2026-05-07 23:41 40.03912 -105.22154 5308 ft 65 kts 266°
2026-05-07 23:41 40.03912 -105.22732 5289 ft 61 kts 268°
2026-05-07 23:42 40.03911 -105.23281 5398 ft 60 kts 262°
2026-05-07 23:42 40.03882 -105.23843 5558 ft 65 kts 256°
2026-05-07 23:42 40.03791 -105.24423 5705 ft 68 kts 250°
2026-05-07 23:42 40.03503 -105.24817 5891 ft 71 kts 183°
2026-05-07 23:43 40.02935 -105.24706 6002 ft 96 kts 173°
2026-05-07 23:43 40.02385 -105.24143 6070 ft 113 kts 109°
2026-05-07 23:43 40.02332 -105.23134 6327 ft 114 kts 89°
2026-05-07 23:43 40.02261 -105.22017 6447 ft 133 kts 86°
2026-05-07 23:44 40.02242 -105.20809 6618 ft 130 kts 84°
2026-05-07 23:44 40.02247 -105.19638 6557 ft 126 kts 81°
2026-05-07 23:44 40.02324 -105.18518 6495 ft 122 kts 63°
2026-05-07 23:44 40.02955 -105.17947 6339 ft 116 kts 352°
2026-05-07 23:45 40.03621 -105.18095 6139 ft 86 kts 321°
2026-05-07 23:45 40.03898 -105.18716 5857 ft 80 kts 275°
2026-05-07 23:45 40.03919 -105.19427 5702 ft 75 kts 269°
2026-05-07 23:45 40.03922 -105.20086 5600 ft 72 kts 268°
2026-05-07 23:46 40.03922 -105.20748 5519 ft 73 kts 268°
2026-05-07 23:46 40.03920 -105.21396 5404 ft 69 kts 264°
2026-05-07 23:46 40.03912 -105.22014 5310 ft 67 kts 266°
2026-05-07 23:46 40.03911 -105.22574 5291 ft 54 kts 269°
2026-05-07 23:47 40.03908 -105.23203 5356 ft 76 kts 265°
2026-05-07 23:47 40.03911 -105.23874 5588 ft 72 kts 266°
2026-05-07 23:47 40.03874 -105.24511 5801 ft 69 kts 244°
2026-05-07 23:47 40.03442 -105.24753 5940 ft 83 kts 177°
2026-05-07 23:48 40.02850 -105.24592 6196 ft 89 kts 175°
2026-05-07 23:48 40.02421 -105.23974 6295 ft 106 kts 97°
2026-05-07 23:48 40.02343 -105.22902 6394 ft 128 kts 91°
2026-05-07 23:48 40.02234 -105.21698 6535 ft 136 kts 91°
2026-05-07 23:49 40.02147 -105.20463 6700 ft 140 kts 89°
2026-05-07 23:49 40.02095 -105.19252 6758 ft 132 kts 84°
2026-05-07 23:49 40.02347 -105.18119 6592 ft 133 kts 38°
2026-05-07 23:49 40.03152 -105.17740 6522 ft 115 kts 360°
2026-05-07 23:50 40.03800 -105.18052 6316 ft 101 kts 303°
2026-05-07 23:50 40.03930 -105.18870 5967 ft 91 kts 263°
2026-05-07 23:50 40.03926 -105.19651 5726 ft 81 kts 272°
2026-05-07 23:50 40.03925 -105.20396 5576 ft 83 kts 268°
2026-05-07 23:51 40.03923 -105.21115 5438 ft 74 kts 266°
2026-05-07 23:51 40.03913 -105.21751 5337 ft 68 kts 267°
2026-05-07 23:51 40.03912 -105.22311 5294 ft 51 kts 268°
2026-05-07 23:51 40.03911 -105.22765 5288 ft 67 kts 269°
2026-05-07 23:52 40.03907 -105.23494 5378 ft 83 kts 263°
2026-05-07 23:52 40.03861 -105.24229 5647 ft 79 kts 259°
2026-05-07 23:52 40.03583 -105.24743 5865 ft 77 kts 196°
2026-05-07 23:52 40.02978 -105.24685 6013 ft 97 kts 165°
2026-05-07 23:53 40.02637 -105.23926 6066 ft 113 kts 93°
2026-05-07 23:53 40.02571 -105.22880 6258 ft 123 kts 91°
2026-05-07 23:53 40.02501 -105.21750 6345 ft 125 kts 87°
2026-05-07 23:53 40.02468 -105.20621 6343 ft 125 kts 86°
2026-05-07 23:54 40.02458 -105.19513 6295 ft 120 kts 84°
2026-05-07 23:54 40.02545 -105.18443 6235 ft 122 kts 58°
2026-05-07 23:54 40.03210 -105.17918 6153 ft 107 kts 358°
2026-05-07 23:54 40.03825 -105.18221 5986 ft 96 kts 298°
2026-05-07 23:55 40.03926 -105.19045 5796 ft 92 kts 268°
2026-05-07 23:55 40.03926 -105.19783 5653 ft 70 kts 269°
2026-05-07 23:55 40.03932 -105.20399 5555 ft 68 kts 265°
2026-05-07 23:55 40.03927 -105.21009 5472 ft 67 kts 265°
2026-05-07 23:56 40.03916 -105.21627 5375 ft 70 kts 266°
2026-05-07 23:56 40.03912 -105.22279 5304 ft 70 kts 267°
2026-05-07 23:56 40.03913 -105.22866 5287 ft 53 kts 274°
2026-05-07 23:56 40.03909 -105.23418 5318 ft 74 kts 263°
2026-05-07 23:57 40.03874 -105.24094 5529 ft 73 kts 258°
2026-05-07 23:57 40.03750 -105.24722 5753 ft 71 kts 244°
2026-05-07 23:57 40.03371 -105.25063 5923 ft 79 kts 178°
2026-05-07 23:57 40.02788 -105.24797 6047 ft 97 kts 137°
2026-05-07 23:58 40.02597 -105.23941 6220 ft 106 kts 92°
2026-05-07 23:58 40.02531 -105.22868 6318 ft 128 kts 89°
2026-05-07 23:58 40.02432 -105.21687 6424 ft 130 kts 92°
2026-05-07 23:58 40.02336 -105.20529 6531 ft 130 kts 89°
2026-05-07 23:59 40.02263 -105.19375 6498 ft 124 kts 90°
2026-05-07 23:59 40.02320 -105.18357 6421 ft 103 kts 58°
2026-05-07 23:59 40.02857 -105.17834 6205 ft 93 kts
2026-05-07 23:59 40.03462 -105.17761 6076 ft 83 kts 334°
2026-05-08 00:00 40.03857 -105.18249 5910 ft 79 kts 292°
2026-05-08 00:00 40.03918 -105.18696 5835 ft 77 kts 268°
2026-05-08 00:00 40.03924 -105.19381 5715 ft 76 kts 268°
2026-05-08 00:00 40.03933 -105.20047 5627 ft 72 kts 265°
2026-05-08 00:01 40.03926 -105.20714 5535 ft 75 kts 267°
2026-05-08 00:01 40.03920 -105.21401 5415 ft 76 kts 263°
2026-05-08 00:01 40.03912 -105.22089 5302 ft 73 kts 267°
2026-05-08 00:01 40.03914 -105.22626 5290 ft 35 kts 270°
2026-05-08 00:02 40.03911 -105.22873 5286 ft 22 kts 269°
2026-05-08 00:02 40.03911 -105.23068 5288 ft 21 kts 271°
2026-05-08 00:02 40.03909 -105.23256 5289 ft 19 kts 268°
2026-05-08 00:02 40.03871 -105.23336 5289 ft 10 kts 168°
2026-05-08 00:03 40.03856 -105.23253 5289 ft 12 kts 89°
2026-05-08 00:03 40.03856 -105.23121 5289 ft 13 kts 94°
2026-05-08 00:03 40.03819 -105.23068 5288 ft 6 kts 138°
2026-05-08 00:03 40.03796 -105.23075 5288 ft 3 kts 269°
2026-05-08 00:04 40.03796 -105.23076 5288 ft 0 kts 271°